Regional Weather Roundup
Issued by NWS Austin/San Antonio, TX

Home | Current Version | Previous Version | Text Only | Print | Product List | Glossary On
Versions: 1 2 3 4 5 6 7 8 9 10 11 12 13 14 15 16 17 18 19 20 21 22 23 24 25 26 27 28 29 30 31 32 33 34 35 36 37 38 39 40 41 42 43 44 45 46 47 48 49 50
000
ASUS44 KEWX 192210
RWREWX
SOUTH TEXAS REGIONAL WEATHER ROUNDUP
NATIONAL WEATHER SERVICE AUSTIN/SAN ANTONIO TX
400 PM CST SUN NOV 19 2017

NOTE: "FAIR" INDICATED FEW OR NO CLOUDS BELOW 12,000 FEET WITH NO
SIGNIFICANT WEATHER AND/OR OBSTRUCTIONS TO VISIBILITY.

* - THESE STATIONS ARE NOT NWS OR FAA STATIONS...AND ARE NOT SUBJECT
    TO NWS AND FAA QUALITY CONTROL.

TXZ171-172-183>190-192300-
TEXAS HILL COUNTRY AND EDWARDS PLATEAU

CITY           SKY/WX    TMP DP  RH WIND       PRES   REMARKS
JUNCTION       MOSUNNY   59  22  24 CALM      30.23F
*LLANO         SUNNY     64  28  25 CALM      30.27F
BURNET         SUNNY     62  26  25 NE6       30.25F
*HORSESHOE BAY SUNNY     62  26  25 CALM      30.24F
*KERRVILLE     SUNNY     61  23  23 SE7       30.24F
*FREDERICKSBRG SUNNY     58  21  24 NE5       30.24F
*ROCKSPRINGS   NOT AVBL
*BOERNE STAGE  SUNNY     59  23  25 E3        30.25F
*CASTROVILLE   SUNNY     66  22  19 CALM      30.25F
HONDO          SUNNY     68  23  18 E9G17     30.23F
*UVALDE        SUNNY     63  24  22 S5        30.24F
DEL RIO        MOSUNNY   61  23  23 S6        30.22F
LAUGHLIN AFB   PTSUNNY   62  23  23 SE5       30.22F
CARRIZO SPRGS  PTSUNNY   63  28  27 CALM      30.22F
*EAGLE PASS    CLEAR     63  25  23 S6        30.23F
$$

TXZ173-191>194-202-209-217>225-228-192300-
CENTRAL AND SOUTH CENTRAL TEXAS

CITY           SKY/WX    TMP DP  RH WIND       PRES   REMARKS
GEORGETOWN     MOSUNNY   62  26  25 N8        30.26F
AUSTIN/BERGSTM PTSUNNY   63  28  26 N10G17    30.23F
AUSTIN/MABRY   MOSUNNY   64  26  23 N5        30.25F
*AUSTIN/EXEC   MOSUNNY   61  27  27 NE7       30.25S
*LAGO VISTA    SUNNY     62  28  27 E3        30.24F
SAN MARCOS     SUNNY     63  28  26 NE8       30.25F
NEW BRAUNFELS  SUNNY     64  28  25 E7        30.23F
RANDOLPH AFB   SUNNY     64  24  22 E7        30.24F
PT SAN ANTONIO SUNNY     64  25  22 E3        30.22F
SAN ANTONIO    MOSUNNY   64  25  22 E3        30.24F
STINSON FIELD  SUNNY     66  24  20 NE9       30.22F
*LA GRANGE     MOSUNNY   64  33  31 N5        30.22S
*GIDDINGS      MOSUNNY   62  30  30 N3        30.25S
*GONZALES      MOSUNNY   65  29  25 N5        30.23F
$$

TXZ163>164-176>182-195>201-210>213-226-227-235-192300-
SOUTHEAST TEXAS

CITY           SKY/WX    TMP DP  RH WIND       PRES   REMARKS
COLLEGE STN    MOSUNNY   63  31  30 N9        30.23F
*BRYAN         MOSUNNY   62  31  30 N8        30.24F
*CALDWELL      MOSUNNY   62  28  27 NE5       30.24F
*CROCKETT        N/A    N/A N/A N/A MISG        N/A
*BRENHAM       MOSUNNY   64  29  27 CALM      30.24F
HUNTSVILLE     MOSUNNY   63  32  31 VRB7      30.23S
CONROE         SUNNY     63  32  31 N7        30.23S
HOUSTON BUSH   PTSUNNY   65  30  27 N8        30.21F
HOUSTON HOBBY  PTSUNNY   63  31  30 N10       30.21S
*HOUSTON SW AP MOSUNNY   62  32  32 N8        30.22S
PEARLAND       MOSUNNY   66  31  27 NW6       30.22S
HOUSTON HOOKS  MOSUNNY   64  34  32 N5        30.22F
ELLINGTON FLD  MOSUNNY   63  30  29 NW7       30.22F
SUGAR LAND     MOSUNNY   65  32  29 N9        30.21S
*HOUSTON EXEC  MOSUNNY   64  32  29 N9        30.23F
*CLEVELAND MUN MOSUNNY   63  28  26 N7        30.23S
*WHARTON       SUNNY     65  27  24 N7        30.23S
*COLUMBUS      FAIR      63  26  24 N5        30.24F
*EAGLE LAKE    PTCLDY    64  31  28 NE6       30.22F
$$

TXZ214>216-236>238-192300-
THE UPPER TEXAS COAST

CITY           SKY/WX    TMP DP  RH WIND       PRES   REMARKS
*ORANGE        SUNNY     62  33  33 N6        30.21F
PORT ARTHUR    SUNNY     62  32  32 N14       30.19F
GALVESTON      SUNNY     65  36  34 N9        30.22F
ANGLETON       SUNNY     66  29  24 N9        30.21F
*BAY CITY      SUNNY     66  30  26 N12       30.21F
PALACIOS         N/A     66  31  27 N9        30.21F
$$

TXZ229>234-239>247-192300-
TEXAS COASTAL BEND AND RIO GRANDE PLAINS

CITY           SKY/WX    TMP DP  RH WIND       PRES   REMARKS
VICTORIA       MOSUNNY   67  29  24 N5        30.23F
*BEEVILLE      SUNNY     65  29  25 NE7       30.23S
ROCKPORT       SUNNY     66  31  27 NE9       30.21F
*PORT ARANSAS  NOT AVBL
*PORT LAVACA   NOT AVBL
*INGLESIDE     NOT AVBL
CORPUS CHRISTI PTSUNNY   68  30  24 NE7       30.22F
CORPUS NAS     SUNNY     67  37  33 E12       30.22F
*ROBSTOWN      SUNNY     66  29  24 NE9       30.23S
ALICE          SUNNY     68  25  19 NE10      30.21F
KINGSVILLE NAS PTSUNNY   68  31  25 NE7       30.22F
COTULLA        PTSUNNY   66  21  18 N5        30.23F
*FAITH RANCH   SUNNY     64  27  24 VRB3      30.23F
LAREDO         PTSUNNY   66  28  24 E5        30.23F
$$

TXZ248>255-192300-
DEEP SOUTH TEXAS

CITY           SKY/WX    TMP DP  RH WIND       PRES   REMARKS
BROWNSVILLE    MOSUNNY   69  50  50 NE12      30.19F
PORT ISABEL    SUNNY     67  50  54 N15G22    30.19F
*SOUTH PADRE   NOT AVBL
HARLINGEN      SUNNY     67  45  45 N16       30.20F
*HEBBRONVILLE  SUNNY     65  25  22 NE5       30.23F HAZE
MCALLEN        SUNNY     69  37  30 NE6       30.21F
*WESLACO       SUNNY     66  41  39 NE8       30.21S
FALFURRIAS     SUNNY     67  27  22 N8        30.22F
EDINBURG       SUNNY     69  32  25 N8        30.22F
*ZAPATA        SUNNY     68  25  19 E3        30.21F
$$

TXZ213>215-236>238-242>244-246-247-251-254-255-192300-
CMAN STATIONS

STATION/POSITION TIME  TEMP    WIND        PRES    WAVE
                       AIR SEA DIR/SP/G            HT/PER
                 (UTC) (F)     (DEG/KT/KT) (MB)    (FT/S)
SABINE PASS      2148   62 69   10/ 12/ 16 1024.0
SEA RIM ST PARK  2200   62      10/  8/ 10 1023.0
NORTH JETTY/GLS  2142      67  350/ 10/ 13 1022.4
EAGLE POINT      2148   62 66   50/  7/ 10 1023.1
MORGANS POINT    2148   63 70   10/ 10/ 12 1022.7
PORT O`CONNOR    2148   62 68   10/  5/  8 1022.8
PORT ARANSAS     2200   62 70   20/ 11/ 13 1023.4
MALAQUITE BEACH  2148   62 71   30/ 12/ 14 1023.1
BAFFIN BAY       2148   62 69   10/ 10/ 13 1023.9
PORT ISABEL      2148   65 73  360/ 13/ 20 1021.8
$$




USA.gov is the U.S. government's official web portal to all federal, state and local government web resources and services.